Regional Weather Roundup
Issued by NWS

Current Version | Previous Version | Text Only | Print | Product List | Glossary On
Versions: 1 2 3 4 5 6 7 8 9 10 11 12 13 14 15 16 17 18 19 20 21 22 23 24 25 26 27 28 29 30 31 32 33 34 35 36 37 38 39 40 41 42 43 44 45 46 47 48 49 50
000
ASUS43 KIND 230209
RWRIN

WEATHER ROUNDUP FOR INDIANA
NATIONAL WEATHER SERVICE INDIANAPOLIS IN
1000 PM EDT WED OCT 22 2014

NOTE: "FAIR" INDICATES FEW OR NO CLOUDS BELOW 12,000 FEET WITH NO
SIGNIFICANT WEATHER AND/OR OBSTRUCTIONS TO VISIBILITY.

* - STATION DOES NOT REPORT WEATHER SUCH AS PRECIPITATION OR FOG.

+ - STATION NOT QUALITY CONTROLLED BY THE NATIONAL WEATHER SERVICE.
    USE DATA WITH CAUTION...ESPECIALLY DEWPOINT AND RELATIVE
    HUMIDITY OBSERVATIONS.

INZ001>003-010>013-019-020-230300-
NORTHWEST INDIANA

CITY           SKY/WX    TMP DP  RH WIND       PRES   REMARKS
KNOX *+          N/A     37  34  89 NE5       30.27S
LA PORTE +     PTCLDY    39  38  96 E3        30.28F
MICHIGAN CITY+ CLEAR     36  36 100 CALM      30.28F
MONTICELLO +   CLEAR     45  38  74 E5        30.26R
RENSSELAER +   CLEAR     41  37  87 NE6       30.27S
VALPARAISO     CLEAR     37  35  92 NE5       30.28S

$$

LMZ046-743>745-230300-
SOUTHERN LAKE MICHIGAN

STATION/POSITION TIME  TEMP WIND        PRES
                       AIR  DIR/SP/G
                 (UTC) (F)  (DEG/KT/KT) (MB)
MICHIGAN CITY    0200   46   60/  8/  9   N/A

$$

INZ004-005-014>016-021>024-230300-
NORTH CENTRAL INDIANA

CITY           SKY/WX    TMP DP  RH WIND       PRES   REMARKS
GOSHEN         CLEAR     38  36  92 E5        30.28F
LOGANSPORT +   CLEAR     41  36  81 E5        30.28R
PERU/GRISSOM   CLEAR     45  44  95 E5        30.27R
ROCHESTER +    CLEAR     43  39  87 CALM      30.28R
SOUTH BEND     CLEAR     41  36  82 CALM      30.29S
WARSAW +       CLEAR     37  36  93 E3        30.28F

$$

INZ006>009-017-018-025>027-230300-
NORTHEAST INDIANA

CITY           SKY/WX    TMP DP  RH WIND       PRES   REMARKS
ANGOLA *+      CLEAR     39  27  60 CALM      30.29S
AUBURN +       CLEAR     37  34  87 CALM      30.30R
FORT WAYNE     CLEAR     39  36  89 E3        30.30S
HUNTINGTON +   CLEAR     40  38  91 E3        30.28S

$$

INZ028-029-035-036-043>045-051>053-230300-
WEST CENTRAL INDIANA

CITY           SKY/WX    TMP DP  RH WIND       PRES   REMARKS
GREENCASTLE +  CLEAR     45  39  81 CALM      30.26S
LAFAYETTE      CLEAR     42  38  85 CALM      30.26S
TERRE HAUTE    CLEAR     42  39  89 CALM      30.25S

$$

INZ030>032-037>040-046>048-054>057-064-065-230300-
CENTRAL INDIANA

CITY           SKY/WX    TMP DP  RH WIND       PRES   REMARKS
CP ATTERBURY + CLEAR     39  37  93 CALM      30.26F
FRANKFORT +    CLEAR     39  38  97 CALM      30.27S
INDIANAPOLIS   CLEAR     49  39  68 E5        30.25S
-EAGLE CREEK   CLEAR     43  40  89 CALM      30.25S
KOKOMO *+      CLEAR     43  37  81 E7        30.27S
MARION +       CLEAR     42  38  83 E5        30.28S
MT COMFORT *+  CLEAR     43  39  87 E5        30.27S
SHELBYVILLE    CLEAR     43  38  82 E7        30.26S
ZIONSVILLE +   CLEAR     41  37  86 E5        30.26S FOG

$$

INZ033-034-041-042-049-050-058-059-230300-
EAST CENTRAL INDIANA

CITY           SKY/WX    TMP DP  RH WIND       PRES   REMARKS
MUNCIE         CLEAR     41  38  89 E6        30.27F

$$

INZ060-061-067>069-081>083-085>088-230300-
SOUTHWEST INDIANA

CITY           SKY/WX    TMP DP  RH WIND       PRES   REMARKS
EVANSVILLE     CLEAR     48  42  80 CALM      30.24S
HUNTINGBURG *+ CLEAR     45  39  81 E6        30.24F
WASHINGTON +   CLEAR     44  40  86 CALM      30.24S

$$

INZ062-063-066-070>080-084-089>092-230300-
SOUTH CENTRAL AND SOUTHEAST INDIANA

CITY           SKY/WX    TMP DP  RH WIND       PRES   REMARKS
BLOOMINGTON    CLEAR     39  37  92 CALM      30.25F
SEYMOUR +      CLEAR     45  39  81 CALM      30.26S

$$




USA.gov is the U.S. government's official web portal to all federal, state and local government web resources and services.